sat.trackr.live / text

‹ back to catalog

STARLINK-34657

NORAD 64775 · 2025-147W

PAYLOAD ACTIVE UNKNOWN

§ Identity

Operator
Country
US
Launch date
2025-07-08
Launch site
AFETR
Launch vehicle
Mass (kg)
RCS (m²)

Purposes: comms

External: N2YO · Heavens-Above · Gunter

§ Orbital elements

Epoch: 2026-05-24T19:20:04.411104Z

Period
93.85 min
Inclination
53.1609°
Eccentricity
0.0001022
Mean motion
15.34407578 rev/d
Perigee alt
462.0 km
Apogee alt
463.4 km
Semi-major
6,840.8 km
B*
5.0924e-4
RAAN
248.6146°
Arg perigee
100.5561°
Mean anomaly
259.5557°
Rev number
5,041

§ Raw data

STARLINK-346571 64775U 25147W   26144.80560661  .00016872  00000+0  50924-3 0  99932 64775  53.1609 248.6146 0001022 100.5561 259.5557 15.34407578 50411

JSON: /api/v1/satellites/64775 · /tle

For live sub-satellite position, see the globe view (requires WebGL).

§ Visibility from observer

Set your observer location to see the next 7 days of passes ≥ 10°. The values pass through the URL so the page stays shareable.

No JS? Fill the form by hand. The geolocation button needs JavaScript.